Location: Laas
(43.4693°N, 0.3073°E)
Time: 14:01:12
(UTC+00:00)

ATLAS 2AS CENTAUR R/B - Pass Details

Date: 25 October 2020
Orbit: 939 x 1273 km, 63.7° (Epoch: 23 November)

Event Time Altitude Azimuth Distance (km) Brightness Sun altitude
Rises 19:22:12 0° 323° (NW) 4,168 6.4 -26.5°
Reaches altitude 10° 19:25:23 10° 333° (NNW) 3,160 5.6 -27.1°
Enters shadow 19:31:56 35° 32° (NNE) 1,783 3.6 -28.3°
